FW2420 Weather Reports


time (UTC)temp
F
wind
direction
speed
knots
gust
knots
rain 1hr
in
rain 24hr
in
rain mn
in
humidity
%
barometer
mb
20260505024525 64 360 11.3 19.1 0.00 0.00 0.00 41 1002.6
20260505023024 65 360 12.2 25.2 0.00 0.00 0.00 39 1001.8
20260505021527 66 360 14.8 22.6 0.00 0.00 0.00 37 1001.7
20260505020018 68 360 11.3 22.6 0.00 0.00 0.00 35 1001.3
20260505014517 69 82 10.4 15.6 0.00 0.00 0.00 31 1000.6
20260505013101 70 360 4.3 8.7 0.00 0.00 0.00 25 1000.2
20260505011550 72 360 5.2 10.4 0.00 0.00 0.00 24 1000.0
20260505010051 73 360 6.1 13.9 0.00 0.00 0.00 21 999.4
20260505004543 74 360 11.3 15.6 0.00 0.00 0.00 20 999.3
20260505003043 75 360 7.0 10.4 0.00 0.00 0.00 19 999.0
20260505001543 76 360 6.1 11.3 0.00 0.00 0.00 18 998.9
20260505000052 77 360 1.7 3.5 0.00 0.00 0.00 16 998.8
20260504234539 77 360 3.5 5.2 0.00 0.00 0.00 16 998.6
20260504233043 77 360 1.7 7.8 0.00 0.00 0.00 16 998.6
20260504231539 78 360 5.2 10.4 0.00 0.00 0.00 16 998.5
20260504230036 78 360 0.0 13.0 0.00 0.00 0.00 15 998.7
20260504224536 79 360 3.5 7.0 0.00 0.00 0.00 15 998.6
20260504223041 79 360 2.6 8.7 0.00 0.00 0.00 15 998.7
20260504221534 78 360 3.5 9.6 0.00 0.00 0.00 14 998.7
20260504220040 79 360 4.3 10.4 0.00 0.00 0.00 14 998.8
20260504214536 80 64 0.9 4.3 0.00 0.00 0.00 14 999.0
20260504213031 80 360 0.9 3.5 0.00 0.00 0.00 14 999.1
20260504211534 80 360 0.0 5.2 0.00 0.00 0.00 14 999.5
20260504210024 80 360 6.1 9.6 0.00 0.00 0.00 14 999.6
20260504204523 79 100 2.6 6.1 0.00 0.00 0.00 14 999.8
20260504203027 78 360 0.9 7.8 0.00 0.00 0.00 14 999.9
20260504201521 79 360 4.3 12.2 0.00 0.00 0.00 15 1000.1
20260504200017 79 84 7.0 11.3 0.00 0.00 0.00 15 1000.3
20260504194514 80 360 7.0 11.3 0.00 0.00 0.00 15 1000.5
20260504193020 80 360 0.9 5.2 0.00 0.00 0.00 12 1000.5
20260504191515 80 339 0.0 15.6 0.00 0.00 0.00 12 1000.6
20260504190012 82 360 10.4 15.6 0.00 0.00 0.00 12 1000.7
20260504184506 81 360 7.8 13.9 0.00 0.00 0.00 13 1000.8
20260504183002 81 360 4.3 12.2 0.00 0.00 0.00 14 1001.1
20260504181600 81 314 5.2 11.3 0.00 0.00 0.00 14 1001.4
20260504180057 81 360 7.0 12.2 0.00 0.00 0.00 16 1001.6
20260504174550 80 360 5.2 12.2 0.00 0.00 0.00 17 1002.0
20260504173048 79 360 7.8 15.6 0.00 0.00 0.00 16 1002.2
20260504171544 78 360 7.8 15.6 0.00 0.00 0.00 16 1002.3
20260504140110 62 360 7.8 12.2 0.00 0.00 0.00 41 1003.6
20260504090106 40 360 5.2 7.0 0.00 0.00 0.00 73 1004.0
20260504081551 40 360 0.9 1.7 0.00 0.00 0.00 70 1004.7
20260504050001 46 360 0.9 1.7 0.00 0.00 0.00 59 1005.5
20260504044601 46 360 0.0 0.0 0.00 0.00 0.00 57 1005.4
20260504043030 46 360 0.0 0.0 0.00 0.00 0.00 53 1005.5
20260504041529 47 360 0.0 1.7 0.00 0.00 0.00 54 1005.5
20260504040027 48 360 0.0 0.0 0.00 0.00 0.00 53 1005.6
20260504034533 49 360 0.9 2.6 0.00 0.00 0.00 50 1005.6
20260504033036 51 360 1.7 2.6 0.00 0.00 0.00 43 1005.6
20260504031529 53 105 0.0 1.7 0.00 0.00 0.00 38 1005.6
20260504030019 56 360 0.9 2.6 0.00 0.00 0.00 36 1005.4